Flag for Portugal Weather past 2 weeks in Faro, Portugal

Now
70 °F

Scattered clouds.


Feels Like: 70 °F
Forecast: 65 / 79 °F
Wind: 13 mph from West

Location: Faro / Aeroporto

Current Time: Aug 2, 2014 at 11:27:46 AM

Latest Report: Aug 2, 2014 at 10:30 AM


Visibility: N/A

Pressure: 29.98 "Hg

Humidity: 83%

Dew point: 64 °F

Location of FaroLocation

Historic Weather in Faro — Graph

°F

Faro temperature yesterday

Maximum temperature yesterday: 79 °F (at 7:00 PM)
Minimum temperature yesterday: 64 °F (at 2:30 AM)
Average temperature yesterday: 70 °F

Past Weeks' High & Low Weather Summary

 TemperatureHumidityPressure
High88 °F (Jul 23, 7:30 PM)100% (Jul 19, 6:30 AM)30.12 "Hg (Jul 19, 6:30 AM)
Low61 °F (Jul 28, 7:00 AM)24% (Jul 23, 12:00 AM)29.83 "Hg (Jul 24, 5:00 PM)
Average71 °F74%29.96 "Hg
* Reported Jul 18 10:00 AM — Aug 2 10:00 AM, Faro, Weather by CustomWeather, © 2014

Note: Actual official high and low records may vary slightly from our data, if they occured in-between our weather recording intervals... More about our weather records

Advertising

Faro weather history for previous 24 hours

 ConditionsComfort  
Time TempWeatherWind HumidityBarometerVisibility
10:00 AM
Aug 2
68 °FScattered clouds.12 mph88%29.98 "HgN/A
9:30 AM68 °FPassing clouds.9 mph83%29.98 "HgN/A
9:00 AM70 °FScattered clouds.9 mph78%29.98 "HgN/A
8:30 AM68 °FPartly sunny.8 mph83%29.98 "HgN/A
8:00 AM66 °FPartly sunny.8 mph88%29.98 "HgN/A
7:30 AM66 °FPassing clouds.9 mph88%29.98 "HgN/A
7:00 AM64 °FPassing clouds.8 mph94%29.98 "HgN/A
6:00 AM64 °FClear.6 mph88%29.95 "Hg10 mi
5:30 AM64 °FClear.7 mph88%29.95 "Hg10 mi
5:00 AM63 °FClear.7 mph88%29.95 "Hg10 mi
4:30 AM64 °FClear.6 mph83%29.95 "Hg10 mi
4:00 AM66 °FClear.8 mph78%29.95 "Hg10 mi
3:30 AM66 °FClear.8 mph78%29.95 "Hg10 mi
3:00 AM66 °FClear.7 mph78%29.95 "Hg10 mi
2:30 AM66 °FClear.10 mph78%29.98 "Hg10 mi
2:00 AM66 °FClear.10 mph78%29.98 "Hg10 mi
1:30 AM66 °FClear.15 mph78%29.98 "Hg10 mi
1:00 AM66 °FClear.13 mph78%29.98 "Hg10 mi
12:30 AM68 °FClear.10 mph69%29.98 "Hg10 mi
12:00 AM68 °FClear.10 mph69%29.98 "Hg10 mi
11:30 PM
Aug 1
68 °FClear.16 mph73%29.98 "Hg10 mi
11:00 PM68 °FClear.14 mph69%29.98 "Hg10 mi
10:30 PM68 °FClear.17 mph69%29.98 "Hg10 mi
10:00 PM70 °FClear.17 mph64%29.98 "Hg10 mi
9:00 PM72 °FSunny.17 mph65%29.95 "Hg10 mi
8:30 PM73 °FSunny.18 mph57%29.95 "Hg10 mi
8:00 PM75 °FSunny.18 mph54%29.95 "Hg10 mi
7:30 PM77 °FSunny.21 mph47%29.95 "Hg10 mi
7:00 PM79 °FSunny.20 mph45%29.92 "Hg10 mi
6:30 PM73 °FSunny.18 mph65%29.92 "Hg10 mi
6:00 PM73 °FSunny.24 mph65%29.92 "Hg10 mi
5:30 PM73 °FSunny.25 mph65%29.92 "Hg10 mi
5:00 PM75 °FSunny.24 mph61%29.92 "Hg10 mi
4:30 PM75 °FSunny.25 mph61%29.92 "Hg10 mi
4:00 PM75 °FSunny.23 mph61%29.95 "Hg10 mi
3:30 PM75 °FSunny.23 mph57%29.95 "Hg10 mi
3:00 PM75 °FSunny.21 mph61%29.98 "Hg10 mi
2:30 PM75 °FSunny.20 mph61%29.98 "Hg10 mi
2:00 PM73 °FSunny.17 mph65%29.98 "Hg10 mi
1:30 PM73 °FSunny.16 mph65%29.98 "Hg10 mi
1:00 PM73 °FSunny.16 mph69%30.01 "Hg10 mi
12:30 PM73 °FScattered clouds.14 mph65%30.01 "HgN/A
12:00 PM73 °FScattered clouds.15 mph65%30.01 "HgN/A
11:30 AM75 °FScattered clouds.9 mph54%30.01 "HgN/A
11:00 AM73 °FScattered clouds.10 mph57%30.01 "HgN/A
Weather by CustomWeather, © 2014

See weather overviewHow to use our weather pages